[[{"header":{"parameterUnit":"m.s-1","parameterCategory":1,"la1":30.2991,"la2":30.254,"lo1":-89.0895,"lo2":-89.0444,"dy":0.0017,"dx":0.0017,"nx":28,"ny":28,"refTime":"2023-08-25T21:00:00:Z","depth":0,"parameterNumber":2,"parameterNumberName":"U-component_of_WINDS"},"data":[0,0,0,0,0,0,0,0,0,0,0,0,0,0,0,0,0,0,0,0,0,0,0,0,0,0,0,0,0,0,0,0,0,0,0,0,0,0,0,0,0,0,0,0,0,0,0,0,0,0,0,0,0,0,0,0,0,0,3.9815,3.9813,0,3.9636,3.9634,3.9632,3.9376,3.9372,3.9367,3.9363,3.9182,3.9181,3.918,0,0,0,0,0,0,0,0,0,0,0,0,0,3.9937,3.9936,3.9815,3.9813,3.981,3.9636,3.9634,3.9631,3.9377,3.9372,3.9366,3.9361,3.9182,3.9181,3.918,0,0,0,0,0,0,0,0,0,0,0,0,0,3.9834,3.9936,3.9815,3.9662,3.9647,3.9637,3.9634,3.9631,3.9378,3.9371,3.9365,3.9359,3.9182,3.9181,3.918,3.9306,0,0,3.9177,3.9177,0,0,0,0,0,0,0,0,3.984,3.983,3.9687,3.9673,3.9656,3.9521,3.961,3.9522,3.938,3.948,3.9363,3.9355,3.93,3.9289,3.927,3.9298,3.929,3.9177,3.9176,3.9176,3.9176,0,0,0,0,0,0,0,3.9848,3.9836,3.9744,3.9685,3.9666,3.9603,3.9581,3.9592,3.943,3.9471,3.9452,3.9434,3.929,3.9272,3.9264,3.9287,3.9177,3.9176,3.9175,3.9175,3.9409,3.9415,0,0,0,0,0,0,3.9878,3.9844,3.975,3.9739,3.9734,3.9606,3.9582,3.9571,3.9429,3.9401,3.944,3.9423,3.9277,3.9266,3.9257,3.9394,3.9176,3.9175,3.9174,3.9402,3.941,3.9417,0,0,0,0,0,0,3.9881,3.9872,3.9757,3.9786,3.9767,3.9611,3.9602,3.9571,3.9552,3.9405,3.9375,3.9451,3.9271,3.9258,3.9295,3.9385,3.9174,3.9173,3.9394,3.9404,3.9414,3.9672,0,0,0,0,0,0,3.9886,3.9874,3.992,3.9789,3.9766,3.9799,3.9607,3.9573,3.9551,3.9527,3.9408,3.9381,3.9265,3.9299,3.9295,3.9379,3.9173,3.9385,3.9398,3.9411,3.9655,3.969,3.972,0,0,0,0,0,3.9891,4.0,3.9924,3.9914,3.982,3.9805,3.9792,3.9655,3.9559,3.9604,3.951,3.9385,3.9376,3.9305,3.9298,3.9384,3.9379,3.9395,3.941,3.964,3.9683,3.9719,0,0,0,0,0,0,4.0147,3.998,3.9894,3.9964,3.9901,3.9762,3.9814,3.9705,3.9668,3.9647,3.9479,3.9454,3.9513,3.9451,3.9375,3.9498,3.9358,3.9373,3.9536,3.9575,3.9607,3.9621,3.9172,0,0,0,0,0,4.0211,4.0212,4.0067,4.0143,4.0115,3.9972,3.9959,3.986,3.9787,3.9759,3.9667,3.9603,3.9584,3.9576,3.9552,3.9645,3.9615,3.97,3.9733,3.976,3.9775,3.982,3.9856,3.9468,3.9468,3.9468,0,0,4.0345,4.0254,4.0265,4.0192,4.0131,4.0136,3.995,3.9964,3.9966,3.9761,3.9791,3.9722,3.9638,3.9704,3.9729,3.9655,3.9876,3.978,3.9803,3.9803,3.984,3.9877,3.991,3.9479,3.9477,3.9475,0,0,4.059,4.0522,4.0577,4.052,4.043,4.0333,4.0348,4.0225,4.0171,4.0198,4.0045,4.0046,4.0018,3.9965,3.9935,4.0161,4.0045,4.0158,4.0328,4.0374,4.0404,4.043,4.0512,4.0543,4.0173,4.0174,4.0174,0,4.0768,4.0769,4.062,4.0643,4.0616,4.043,4.0486,4.0438,4.0346,4.0331,4.025,4.0211,4.0142,4.0193,4.0249,4.023,4.0241,4.0171,4.0412,4.0437,4.0459,4.0535,4.0566,4.0188,4.0186,4.0185,4.0184,0,4.0991,4.0995,4.1051,4.0966,4.0944,4.0984,4.0842,4.0839,4.0741,4.0654,4.0684,4.0594,4.0549,4.0553,4.0458,4.0591,4.0548,4.0442,4.0298,4.0513,4.0581,4.0609,4.0209,4.0203,4.0199,4.0196,0,0,4.1393,4.1225,4.1249,4.1208,4.1095,4.1095,4.1127,4.1081,4.1082,4.1024,4.1047,4.1028,4.0929,4.0895,4.0792,4.0833,4.1018,4.072,4.0716,4.0779,4.116,4.1242,4.1278,4.0941,4.0946,4.095,4.1167,0,4.1617,4.1661,4.1528,4.1606,4.1607,4.1432,4.1459,4.1393,4.1313,4.1303,4.1213,4.1203,4.1072,4.105,4.1082,4.099,4.1093,4.0972,4.0961,4.0962,4.0988,4.1313,4.1399,4.1609,4.1193,4.1197,4.1201,0,4.1884,4.1841,4.1919,4.1802,4.1797,4.1825,4.1773,4.1765,4.1687,4.1625,4.1588,4.1469,4.1492,4.1355,4.1384,4.1305,4.1292,4.1246,4.1251,4.1245,4.1095,4.1317,4.1672,4.1704,4.1241,4.1238,4.1235,0,4.217,4.2131,4.2172,4.2143,4.2008,4.2031,4.1976,4.1891,4.1873,4.1827,4.1814,4.1773,4.175,4.1721,4.1594,4.1506,4.164,4.1491,4.159,4.1593,4.1626,4.1626,4.1986,4.1618,4.1618,4.1617,4.1617,0,4.2435,4.249,4.2299,4.2325,4.2381,4.2229,4.2289,4.2216,4.2143,4.2152,4.1997,4.2009,4.184,4.1833,4.1734,4.1774,4.1765,4.1716,4.1689,4.173,4.1737,4.172,4.1703,4.1625,4.1623,4.1622,4.162,0,4.2764,4.2638,4.2672,4.2541,4.251,4.2558,4.2445,4.2464,4.2374,4.2387,4.2381,4.224,4.2224,4.2094,4.2049,4.1982,4.2061,4.2005,4.2087,4.2069,4.2175,4.2168,4.2537,4.2578,4.2186,4.219,4.2193,0,4.2941,4.2979,4.2853,4.2847,4.2799,4.2793,4.2773,4.2624,4.261,4.2525,4.2555,4.2526,4.2495,4.2478,4.2372,4.2337,4.228,4.2412,4.2273,4.2314,4.2282,4.2282,4.2285,4.2442,4.2447,4.2451,4.2454,0,4.3269,4.3205,4.3182,4.3139,4.312,4.3078,4.3027,4.3032,4.2868,4.286,4.2842,4.2818,4.2772,4.2747,4.2693,4.2636,4.2519,4.2498,4.2519,4.2562,4.2609,4.2586,4.2168,4.2491,4.2487,4.2484,4.2482,4.2481,4.3527,4.3553,4.3469,4.3449,4.3395,4.3351,4.3362,4.3273,4.3255,4.3206,4.3119,4.3114,4.3035,4.2951,4.2904,4.2898,4.2829,4.286,4.2867,4.2878,4.29,4.261,4.2888,4.2887,4.2886,4.2885,4.2884,0,4.3848,4.3785,4.3768,4.3701,4.3686,4.3576,4.3514,4.3509,4.3507,4.3443,4.3416,4.3396,4.337,4.3261,4.3224,4.324,4.3186,4.3236,4.3233,4.3222,4.2963,4.2949,4.328,4.328,4.328,4.328,4.328,4.328,4.4013,4.4051,4.3978,4.3988,4.3923,4.3917,4.3891,4.385,4.3799,4.3783,4.3761,4.369,4.3608,4.3564,4.3535,4.3504,4.3498,4.3566,4.3518,4.3278,4.324,4.3204,4.319,4.3566,4.3567,4.3777,4.3779,4.378]},{"header":{"parameterUnit":"m.s-1","parameterCategory":1,"la1":30.2991,"la2":30.254,"lo1":-89.0895,"lo2":-89.0444,"dy":0.0017,"dx":0.0017,"nx":28,"ny":28,"refTime":"2023-08-25T21:00:00:Z","depth":0,"parameterNumber":3,"parameterNumberName":"V-component_of_WINDS"},"data":[0,0,0,0,0,0,0,0,0,0,0,0,0,0,0,0,0,0,0,0,0,0,0,0,0,0,0,0,0,0,0,0,0,0,0,0,0,0,0,0,0,0,0,0,0,0,0,0,0,0,0,0,0,0,0,0,0,0,1.1435,1.1436,0,1.1541,1.1543,1.1544,1.1602,1.1602,1.1602,1.1602,1.171,1.1713,1.1715,0,0,0,0,0,0,0,0,0,0,0,0,0,1.1281,1.1284,1.1435,1.1437,1.1438,1.1541,1.1543,1.1544,1.1602,1.1602,1.1602,1.1602,1.1709,1.1712,1.1716,0,0,0,0,0,0,0,0,0,0,0,0,0,1.1364,1.1285,1.1435,1.1479,1.1484,1.1541,1.1543,1.1545,1.1601,1.1602,1.1602,1.1602,1.1708,1.1712,1.1716,1.1737,0,0,1.1729,1.1731,0,0,0,0,0,0,0,0,1.1359,1.1369,1.1471,1.1476,1.1482,1.1559,1.1528,1.1609,1.1601,1.1557,1.1602,1.1602,1.1659,1.1668,1.1687,1.1742,1.1747,1.1729,1.1732,1.1733,1.1735,0,0,0,0,0,0,0,1.1353,1.1365,1.1477,1.1473,1.1479,1.1493,1.1505,1.1544,1.1606,1.1561,1.1565,1.1577,1.1662,1.1683,1.169,1.1749,1.1729,1.1733,1.1735,1.1737,1.1826,1.1826,0,0,0,0,0,0,1.1341,1.136,1.1474,1.148,1.142,1.1496,1.1509,1.1534,1.1605,1.1617,1.1577,1.1579,1.1676,1.1685,1.1694,1.1723,1.1733,1.1737,1.174,1.1827,1.1826,1.1826,0,0,0,0,0,0,1.1337,1.135,1.147,1.1422,1.1438,1.1498,1.1525,1.1536,1.1556,1.1617,1.1629,1.1586,1.1676,1.1688,1.1726,1.1728,1.1739,1.1743,1.1827,1.1827,1.1826,1.1782,0,0,0,0,0,0,1.1332,1.1349,1.1357,1.1421,1.144,1.15,1.1525,1.1538,1.1563,1.1568,1.163,1.164,1.1677,1.172,1.173,1.1734,1.1746,1.1827,1.1827,1.1826,1.1783,1.178,1.1777,0,0,0,0,0,1.1327,1.1341,1.1358,1.1371,1.1453,1.15,1.1511,1.1554,1.1563,1.1572,1.1612,1.1638,1.1726,1.1723,1.1735,1.174,1.1827,1.1827,1.1826,1.1785,1.1781,1.1778,0,0,0,0,0,0,1.1275,1.135,1.1369,1.1405,1.1445,1.151,1.1523,1.1548,1.1587,1.159,1.1641,1.1655,1.1688,1.1718,1.1713,1.1764,1.1779,1.1781,1.1743,1.174,1.1737,1.1729,1.1749,0,0,0,0,0,1.1268,1.1301,1.1364,1.1389,1.1408,1.1462,1.1484,1.1514,1.1558,1.1576,1.1618,1.166,1.1697,1.172,1.1758,1.1788,1.1802,1.1798,1.1795,1.1792,1.1793,1.1811,1.1809,1.1826,1.1826,1.1826,0,0,1.1253,1.1298,1.1316,1.138,1.1415,1.1447,1.1476,1.1509,1.1533,1.1581,1.1619,1.1651,1.1701,1.1735,1.1753,1.1762,1.1792,1.1792,1.1789,1.1792,1.181,1.1809,1.1807,1.1826,1.1826,1.1826,0,0,1.1243,1.128,1.1305,1.134,1.1393,1.1428,1.1434,1.1494,1.1517,1.1557,1.1593,1.1622,1.1685,1.172,1.1745,1.1747,1.1773,1.1758,1.1742,1.1759,1.1758,1.1757,1.1757,1.1757,1.1759,1.1759,1.1759,0,1.1218,1.1268,1.1314,1.1345,1.1372,1.1417,1.1441,1.1473,1.1535,1.1553,1.1562,1.1642,1.1679,1.1721,1.1722,1.1741,1.1749,1.1751,1.1754,1.1754,1.1754,1.1755,1.1755,1.1757,1.1757,1.1758,1.1758,0,1.1235,1.1269,1.1282,1.1342,1.137,1.1398,1.1447,1.1471,1.1498,1.1532,1.1571,1.1617,1.1664,1.1677,1.1704,1.1723,1.1727,1.1745,1.1761,1.1749,1.1751,1.1752,1.1754,1.1755,1.1755,1.1756,0,0,1.1195,1.1279,1.1283,1.131,1.1372,1.1399,1.1429,1.1475,1.1494,1.1535,1.1561,1.1613,1.163,1.1659,1.169,1.1705,1.1703,1.1721,1.1723,1.1715,1.1727,1.1712,1.1712,1.172,1.1721,1.1721,1.1722,0,1.1193,1.1248,1.129,1.133,1.1361,1.1404,1.143,1.147,1.1503,1.1535,1.1571,1.1607,1.1626,1.1644,1.1661,1.1699,1.1706,1.17,1.1744,1.1745,1.173,1.1713,1.1698,1.1697,1.1723,1.1723,1.1724,0,1.1198,1.1238,1.128,1.1338,1.1353,1.1376,1.1421,1.1451,1.1498,1.1521,1.1553,1.1585,1.1617,1.163,1.1676,1.1671,1.1692,1.1714,1.1715,1.172,1.1733,1.1717,1.1698,1.1698,1.1725,1.1725,1.1725,0,1.1164,1.1228,1.1262,1.1284,1.1353,1.1367,1.1396,1.1443,1.1468,1.1508,1.1525,1.1568,1.1592,1.1624,1.1667,1.1673,1.1708,1.1725,1.1728,1.1726,1.1733,1.1732,1.1716,1.1747,1.1747,1.1747,1.1747,0,1.1157,1.1181,1.1247,1.1268,1.1296,1.1344,1.137,1.1403,1.1444,1.1472,1.1512,1.1536,1.1592,1.1623,1.1657,1.1689,1.17,1.1719,1.1727,1.1715,1.1712,1.1729,1.1729,1.1747,1.1747,1.1747,1.1747,0,1.1123,1.1169,1.1208,1.127,1.1286,1.1304,1.1357,1.1378,1.1413,1.1447,1.1458,1.1513,1.1552,1.1598,1.1652,1.1674,1.1704,1.1717,1.1688,1.1693,1.1693,1.1692,1.1686,1.1688,1.1718,1.1717,1.1717,0,1.1116,1.1135,1.1199,1.122,1.1248,1.1282,1.1308,1.1356,1.1381,1.1435,1.145,1.1492,1.1528,1.1589,1.1633,1.1675,1.1689,1.1684,1.1695,1.1682,1.1688,1.1686,1.1688,1.1681,1.168,1.168,1.1679,0,1.1097,1.1118,1.1154,1.1198,1.1227,1.1264,1.1302,1.1317,1.1373,1.1399,1.144,1.1468,1.1523,1.1564,1.1611,1.1641,1.1669,1.1676,1.1678,1.1665,1.1648,1.1657,1.1679,1.1675,1.1676,1.1676,1.1676,1.1676,1.1076,1.1095,1.1142,1.1181,1.1215,1.1249,1.1272,1.131,1.1345,1.1393,1.142,1.1459,1.1505,1.1572,1.1601,1.1632,1.1642,1.1646,1.1647,1.1647,1.1643,1.1643,1.1641,1.1641,1.1641,1.1642,1.1642,0,1.1058,1.1091,1.1126,1.1178,1.1208,1.1233,1.1276,1.1299,1.1334,1.1374,1.1409,1.1455,1.1495,1.1543,1.1586,1.1602,1.1616,1.1612,1.1611,1.1617,1.1632,1.1625,1.16,1.16,1.16,1.16,1.16,1.16,1.1053,1.1086,1.1113,1.1164,1.1196,1.1236,1.1258,1.129,1.1323,1.1373,1.1406,1.1437,1.1481,1.1527,1.1565,1.1578,1.1591,1.1583,1.16,1.1613,1.1616,1.162,1.1613,1.1586,1.1586,1.1582,1.1582,1.1582]}]]